Regional Weather Roundup
Issued by NWS

Home | Current Version | Previous Version | Graphics & Text | Print | Product List | Glossary On
Versions: 1 2 3 4 5 6 7 8 9 10 11 12 13 14 15 16 17 18 19 20 21 22 23 24 25 26 27 28 29 30 31 32 33 34 35 36 37 38 39 40 41 42 43 44 45 46 47 48 49 50
000
ASUS45 KSLC 240710
RWRUT

UTAH REGIONAL WEATHER ROUNDUP
NATIONAL WEATHER SERVICE SALT LAKE CITY UT
100 AM MDT TUE MAY 24 2016

UTZ001>011-023>025-240800-

NORTHERN UTAH

CITY           SKY/WX    TMP DP  RH WIND       PRES   REMARKS
BRIGHAM CITY     N/A     51  41  67 CALM      29.84S
HILL AFB       MOCLDY    55  33  44 E12       29.83S
LOGAN          PTCLDY    48  42  80 CALM      29.86S
OGDEN          PTCLDY    56  36  47 CALM      29.82S
PROVO AIRPORT  CLOUDY    54  37  54 E6        29.82S
SALT LAKE CITY PTCLDY    53  43  68 S3        29.81F
VERNAL         CLEAR     49  33  54 NW7       29.88R
WENDOVER       MOCLDY    57  34  41 SW3       29.83S
HEBER CITY     CLOUDY    52  34  50 NE3       29.85F
WEST JORDAN    CLEAR     54  36  50 W7        29.83S

$$

UTZ012>022-026-027-240800-

SOUTHERN/CENTRAL UTAH

CITY           SKY/WX    TMP DP  RH WIND       PRES   REMARKS
BLANDING       CLEAR     48  19  31 CALM      29.96R
BRYCE CANYON   PTCLDY    31  23  72 SW5       29.97R WCI  26
CEDAR CITY     PTCLDY    49  22  34 CALM      29.86S
DELTA          MOCLDY    52  34  50 E5        29.81R
HANKSVILLE     PTCLDY    54  16  22 CALM      29.79S
MILFORD        PTCLDY    56  22  26 S9        29.82S
MOAB/CYNLANDS  MOCLDY    59  17  19 CALM      29.77F
PRICE          MOCLDY    52  18  26 E3        29.84F
ST GEORGE      CLOUDY    64  21  19 SE9       29.78R
KANAB          CLEAR     46  32  57 CALM      29.90S

$$

REGIONAL REPORTS     COLORADO/ARIZONA

CITY           SKY/WX    TMP DP  RH WIND       PRES   REMARKS
CRAIG, CO      CLOUDY    39  33  79 CALM      29.95S
GRAND JUNCTION CLEAR     50  27  40 E5        29.83F
RIFLE          CLOUDY    46  31  55 CALM      29.90S
MONTROSE       CLEAR     50  23  34 SE9       29.92S
CORTEZ         CLEAR     38  25  59 E3        29.94R
PAGE, AZ       CLEAR     69  17  13 VRB7      29.81R
GRAND CANYON   CLEAR     45  21  38 SW5       29.97F
KINGMAN        CLEAR     61  18  18 S10       29.81F
FLAGSTAFF      CLEAR     40  23  50 CALM      30.00F

$$

REGIONAL REPORTS    NEVADA/IDAHO/WYOMING

CITY           SKY/WX    TMP DP  RH WIND       PRES   REMARKS
LAS VEGAS, NV  CLEAR     71  32  23 SW16G25   29.69R
ELY            CLOUDY    50  29  44 NW13      29.87R
ELKO           CLOUDY    52  42  69 NW3       29.86S
POCATELLO, ID  CLEAR     44  37  76 E3        29.87F
BURLEY         PTCLDY    48  41  76 SW5       29.85S
EVANSTON, WY   CLOUDY    44  28  53 E5        29.95F
ROCK SPRINGS   CLOUDY    45  33  63 SE9       29.96R
KEMMERER         N/A     36  30  80 N9        29.97F WCI  29

$$



USA.gov is the U.S. government's official web portal to all federal, state and local government web resources and services.